Norfolk, NE

1:35 PM CDT on May 26, 2018 (GMT -0500)
Stefan Memorial

Weather History for KOFK - November, 2011

Change the Weather History Date:

Saturday, November 26, 2011

  Actual Average Record
Temperature  
Mean Temperature 37 °F 31 °F  
Max Temperature 44 °F 41 °F 70 °F (1914)
Min Temperature 30 °F 20 °F -7 °F (1898)
Degree Days  
Heating Degree Days 28 34  
Month to date heating degree days 671 716  
Since 1 July heating degree days 1214 1301  
Cooling Degree Days 0 0  
Month to date cooling degree days 0 0  
Year to date cooling degree days 1059 915  
Moisture  
Dew Point 24 °F    
Average Humidity 56    
Maximum Humidity 76    
Minimum Humidity 36    
Precipitation  
Precipitation 0.00 in 0.04 in 0.50 in (1931)
Month to date precipitation 0.10 1.21  
Year to date precipitation 20.25 26.50  
Snow  
Snow 0.00 in 0.20 in - ()
Month to date snowfall T 3.3  
Since 1 July snowfall T 4.1  
Snow Depth 0.00 in    
Sea Level Pressure  
Sea Level Pressure 30.09 in    
Wind  
Wind Speed 27 mph (NW)    
Max Wind Speed 43 mph    
Max Gust Speed 53 mph    
Visibility 10 miles    
Events      
T = Trace of Precipitation, MM = Missing Value Source: NWS Daily Summary

Daily Weather History Graph

Daily Weather History Graph

Search for Another Location

Airport or City:

Astronomy

Nov. 26, 2011 Rise Set
Actual Time 7:32 AM CST 5:01 PM CST
Civil Twilight 7:01 AM CST 5:32 PM CST
Nautical Twilight 6:27 AM CST 6:06 PM CST
Astronomical Twilight 5:53 AM CST 6:39 PM CST
Moon 9:05 AM CST 6:32 PM CST
Length of Visible Light 10h 30m
Length of Day
9h 28m
Waxing Crescent, 3% of the Moon is Illuminated
Nov 26
Waxing Crescent
Dec 2
First Quarter
Dec 10
Full
Dec 17
Last Quarter
Dec 24
New

Hourly Weather History & Observations

Time (CST) Temp. Windchill Dew Point Humidity Pressure Visibility Wind Dir Wind Speed Gust Speed Precip Events Conditions
12:56 AM 39.9 °F 32.5 °F 30.9 °F 70% 29.77 in 10.0 mi NW 12.7 mph - N/A   Clear
1:56 AM 39.0 °F 29.9 °F 30.9 °F 73% 29.81 in 10.0 mi NW 17.3 mph 24.2 mph N/A   Clear
2:42 AM 39.2 °F 28.7 °F 30.2 °F 70% 29.82 in 10.0 mi NW 23.0 mph 28.8 mph N/A   Mostly Cloudy
2:56 AM 39.0 °F 27.8 °F 30.9 °F 73% 29.86 in 10.0 mi NW 26.5 mph 33.4 mph N/A   Overcast
3:56 AM 37.0 °F 25.1 °F 30.0 °F 76% 29.89 in 10.0 mi NW 26.5 mph 31.1 mph N/A   Overcast
5:56 AM 39.0 °F 28.3 °F 30.9 °F 73% 29.95 in 8.0 mi NNW 24.2 mph 32.2 mph N/A   Overcast
6:56 AM 39.0 °F 27.0 °F 30.0 °F 70% 29.99 in 8.0 mi NNW 31.1 mph 41.4 mph N/A   Overcast
7:29 AM 39.2 °F 29.6 °F 28.4 °F 65% 29.99 in 9.0 mi NW 19.6 mph 31.1 mph N/A   Mostly Cloudy
7:56 AM 39.9 °F 28.0 °F 28.9 °F 65% 30.01 in 10.0 mi NW 32.2 mph 42.6 mph N/A   Mostly Cloudy
8:22 AM 41.0 °F 30.5 °F 28.4 °F 61% 30.02 in 10.0 mi NNW 26.5 mph 43.7 mph N/A   Mostly Cloudy
8:56 AM 42.1 °F 31.1 °F 27.0 °F 55% 30.06 in 10.0 mi NNW 31.1 mph 41.4 mph N/A   Overcast
9:04 AM 41.0 °F 30.0 °F 26.6 °F 57% 30.04 in 10.0 mi NNW 28.8 mph 40.3 mph N/A   Mostly Cloudy
9:56 AM 41.0 °F 29.7 °F 26.1 °F 55% 30.09 in 10.0 mi NNW 31.1 mph 44.9 mph N/A   Overcast
10:04 AM 39.2 °F 26.5 °F 26.6 °F 61% 30.06 in 10.0 mi NW 35.7 mph 52.9 mph N/A   Overcast
10:56 AM 39.9 °F 27.6 °F 26.1 °F 58% 30.12 in 10.0 mi NNW 34.5 mph 49.5 mph N/A   Mostly Cloudy
11:39 AM 41.0 °F 28.6 °F 26.6 °F 57% 30.09 in 10.0 mi NNW 38.0 mph 46.0 mph N/A   Mostly Cloudy
11:56 AM 42.1 °F 30.6 °F 26.1 °F 53% 30.13 in 10.0 mi NNW 34.5 mph 44.9 mph N/A   Mostly Cloudy
12:56 PM 43.0 °F 31.8 °F 24.1 °F 47% 30.14 in 10.0 mi NW 34.5 mph 42.6 mph N/A   Partly Cloudy
1:56 PM 43.0 °F 33.3 °F 21.0 °F 42% 30.14 in 10.0 mi NNW 25.3 mph 41.4 mph N/A   Clear
3:56 PM 41.0 °F 31.1 °F 17.1 °F 38% 30.21 in 10.0 mi NNW 23.0 mph 43.7 mph N/A   Clear
4:56 PM 37.9 °F 25.5 °F 17.1 °F 43% 30.24 in 10.0 mi NNW 31.1 mph 41.4 mph N/A   Clear
5:56 PM 37.9 °F 26.1 °F 18.0 °F 45% 30.26 in 10.0 mi NNW 27.6 mph 42.6 mph N/A   Overcast
6:56 PM 37.9 °F 26.3 °F 18.0 °F 45% 30.27 in 10.0 mi NNW 26.5 mph 42.6 mph N/A   Overcast
7:56 PM 37.9 °F 26.6 °F 18.0 °F 45% 30.29 in 10.0 mi NNW 25.3 mph 41.4 mph N/A   Overcast
8:56 PM 37.0 °F 25.4 °F 18.0 °F 46% 30.29 in 10.0 mi NNW 25.3 mph 38.0 mph N/A   Overcast
9:56 PM 33.1 °F 20.6 °F 10.9 °F 40% 30.32 in 10.0 mi NW 23.0 mph 34.5 mph N/A   Clear
10:56 PM 30.9 °F 18.4 °F 9.0 °F 40% 30.33 in 10.0 mi NW 20.7 mph 29.9 mph N/A   Clear
11:56 PM 30.0 °F 17.5 °F 9.0 °F 41% 30.32 in 10.0 mi NW 19.6 mph 27.6 mph N/A   Clear